Weather History for Fort Lauderdale, FL

Change the Weather History Date:

Wednesday, January 30, 2013

  Actual Average Record
Temperature  
Mean Temperature 76 °F -  
Max Temperature 79 °F 77 °F 87 °F (1949)
Min Temperature 72 °F 56 °F 31 °F (1978)
Cooling Degree Days 10    
Growing Degree Days 26 (Base 50)    
Moisture  
Dew Point 64 °F    
Average Humidity 70    
Maximum Humidity 84    
Minimum Humidity 58    
Precipitation  
Precipitation 0.00 in - - ()
Sea Level Pressure  
Sea Level Pressure 30.06 in    
Wind  
Wind Speed 12 mph (SE)    
Max Wind Speed 21 mph    
Max Gust Speed 29 mph    
Visibility 10 miles    
Events      
Averages and records for this station are not official NWS values.
T = Trace of Precipitation, MM = Missing Value Source: NWS Daily Summary

Daily Weather History Graph

Daily Weather History Graph

Search for Another Location

Airport:

Trip Planner

Search our weather history database for the weather conditions in past years. The results will help you decide how hot, cold, wet, or windy it might be!

Date:

Astronomy

Jan. 30, 2013 Rise Set
Actual Time 7:05 AM EST 6:02 PM EST
Civil Twilight 6:41 AM EST 6:26 PM EST
Nautical Twilight 6:13 AM EST 6:54 PM EST
Astronomical Twilight 5:46 AM EST 7:21 PM EST
Moon 9:30 PM EST (1/30) 8:58 AM EST (1/30)
Length of Visible Light 11h 45m
Length of Day
10h 56m
Waning Gibbous, 88% of the Moon is Illuminated
Jan 30
Waning Gibbous
Feb 3
Last Quarter
Feb 10
New
Feb 17
First Quarter
Feb 25
Full

Hourly Weather History & Observations

Time (EST) Temp. Dew Point Humidity Pressure Visibility Wind Dir Wind Speed Gust Speed Precip Events Conditions
12:53 AM 73.0 °F 62.1 °F 68% 30.12 in 10.0 mi ESE 13.8 mph - N/A   Partly Cloudy
1:53 AM 73.0 °F 63.0 °F 71% 30.12 in 10.0 mi SE 10.4 mph - N/A   Scattered Clouds
2:53 AM 73.0 °F 63.0 °F 71% 30.12 in 10.0 mi SE 9.2 mph 17.3 mph N/A   Partly Cloudy
3:53 AM 72.0 °F 63.0 °F 73% 30.11 in 10.0 mi SE 12.7 mph 18.4 mph N/A   Partly Cloudy
4:53 AM 72.0 °F 63.0 °F 73% 30.09 in 10.0 mi ESE 10.4 mph - N/A   Scattered Clouds
5:53 AM 72.0 °F 63.0 °F 73% 30.09 in 10.0 mi SE 11.5 mph 19.6 mph N/A   Partly Cloudy
6:53 AM 72.0 °F 62.1 °F 71% 30.11 in 10.0 mi SE 9.2 mph - N/A   Clear
7:53 AM 73.4 °F 62.6 °F 69% 30.10 in 10.0 mi SE 11.5 mph - N/A   Clear
8:53 AM 75.0 °F 61.0 °F 62% 30.11 in 10.0 mi SE 17.3 mph 21.9 mph N/A   Scattered Clouds
9:53 AM 75.9 °F 64.0 °F 67% 30.12 in 10.0 mi SE 17.3 mph 23.0 mph N/A   Scattered Clouds
10:53 AM 78.1 °F 62.1 °F 58% 30.09 in 10.0 mi SE 16.1 mph 24.2 mph N/A   Scattered Clouds
11:53 AM 78.1 °F 64.0 °F 62% 30.06 in 10.0 mi SE 16.1 mph 25.3 mph N/A   Mostly Cloudy
12:53 PM 78.1 °F 64.0 °F 62% 30.01 in 10.0 mi SE 20.7 mph 28.8 mph N/A   Scattered Clouds
1:53 PM 79.0 °F 64.9 °F 62% 30.00 in 10.0 mi SE 19.6 mph 24.2 mph N/A   Mostly Cloudy
2:53 PM 78.1 °F 63.0 °F 60% 29.99 in 10.0 mi SE 15.0 mph 24.2 mph N/A   Partly Cloudy
3:53 PM 79.0 °F 63.0 °F 58% 30.01 in 10.0 mi South 13.8 mph 19.6 mph N/A   Scattered Clouds
4:53 PM 78.1 °F 64.0 °F 62% 30.03 in 10.0 mi South 5.8 mph - N/A   Mostly Cloudy
5:53 PM 75.9 °F 64.0 °F 67% 30.01 in 10.0 mi South 9.2 mph - N/A   Clear
6:53 PM 73.9 °F 66.0 °F 76% 30.00 in 10.0 mi South 6.9 mph - N/A   Clear
7:53 PM 73.0 °F 66.0 °F 79% 30.01 in 10.0 mi SSE 3.5 mph - N/A   Clear
8:53 PM 72.0 °F 66.9 °F 84% 30.01 in 10.0 mi South 3.5 mph - N/A   Clear
9:53 PM 72.0 °F 66.9 °F 84% 30.02 in 10.0 mi South 3.5 mph - N/A   Clear
10:53 PM 72.0 °F 66.9 °F 84% 30.02 in 10.0 mi SSE 5.8 mph - N/A   Clear
11:53 PM 72.0 °F 66.9 °F 84% 30.01 in 10.0 mi South 5.8 mph - N/A   Clear